Home   Weather   Marchtrenk   Past weeks

Flag for Austria Past Weather in Marchtrenk, Upper Austria, Austria — Yesterday and Last 2 Weeks

Now
39 °F

Partly sunny.


Feels Like: 34 °F
Forecast: 29 / 59 °F
Wind: 8 mph from West

Location: Linz / Hoersching-Flughafen

Current Time: Apr 23, 2017 at 8:07:44 am

Latest Report: Apr 23, 2017 at 7:20 am


Visibility: N/A

Pressure: 30.15 "Hg

Humidity: 87%

Dew Point: 36 °F

Location of MarchtrenkLocation

Past Weather in Marchtrenk — Graph

°F

Marchtrenk Temperature Yesterday

Maximum temperature yesterday: 52 °F (at 4:20 pm)
Minimum temperature yesterday: 43 °F (at 12:20 am)
Average temperature yesterday: 46 °F

High & Low Weather Summary for the Past Weeks

 TemperatureHumidityPressure
High72 °F (Apr 10, 3:20 pm)100% (Apr 18, 8:50 pm)30.51 "Hg (Apr 18, 8:50 pm)
Low28 °F (Apr 20, 5:20 am)33% (Apr 9, 5:20 pm)29.83 "Hg (Apr 13, 5:50 am)
Average47 °F70%30.13 "Hg
* Reported Apr 8 6:20 am — Apr 23 6:50 am, Marchtrenk, Weather by CustomWeather, © 2017

Note: Actual official high and low records may vary slightly from our data, if they occured in-between our weather recording intervals... More about our weather records

Advertising

Marchtrenk Weather History for the Previous 24 Hours

Scroll right to see more
 ConditionsComfort  
Time TempWeatherWind HumidityBarometerVisibility
6:50 am
Sun, Apr 23
41 °FPartly sunny.10 mph81%30.15 "HgN/A
6:20 am41 °FPartly sunny.12 mph81%30.15 "HgN/A
5:50 am41 °FPassing clouds.13 mph87%30.12 "HgN/A
5:20 am41 °FPartly cloudy.10 mph87%30.12 "HgN/A
4:50 am39 °FPassing clouds.9 mph93%30.12 "HgN/A
4:20 am39 °FPassing clouds.8 mph93%30.12 "HgN/A
3:50 am39 °FSprinkles. Passing clouds.10 mph93%30.12 "HgN/A
3:20 am41 °FLight rain. Partly cloudy.12 mph87%30.09 "HgN/A
2:50 am43 °FLight rain. Passing clouds.8 mph87%30.12 "HgN/A
2:20 am41 °FPassing clouds.7 mph93%30.12 "HgN/A
1:50 am41 °FPassing clouds.8 mph93%30.12 "HgN/A
1:20 am41 °FPassing clouds.6 mph87%30.12 "HgN/A
12:50 am41 °FOvercast.7 mph81%30.12 "HgN/A
12:20 am43 °FSprinkles. Overcast.8 mph81%30.12 "HgN/A
11:50 pm
Sat, Apr 22
43 °FOvercast.7 mph93%30.12 "HgN/A
11:20 pm43 °FLight rain. Overcast.9 mph87%30.12 "HgN/A
10:50 pm43 °FOvercast.10 mph87%30.12 "HgN/A
10:20 pm45 °FPassing clouds.12 mph87%30.09 "HgN/A
9:50 pm45 °FSprinkles. Passing clouds.13 mph87%30.09 "HgN/A
9:20 pm45 °FPartly cloudy.15 mph87%30.09 "HgN/A
8:20 pm45 °FPassing clouds.9 mph87%30.09 "HgN/A
7:50 pm45 °FLight rain. Broken clouds.12 mph87%30.09 "HgN/A
7:20 pm46 °FRain. Broken clouds.12 mph87%30.07 "HgN/A
6:50 pm48 °FLight rain. Broken clouds.17 mph82%30.07 "Hg4 mi
6:20 pm48 °FLight rain. Broken clouds.17 mph82%30.07 "HgN/A
5:50 pm50 °FLight rain. Broken clouds.15 mph76%30.07 "HgN/A
5:20 pm50 °FSprinkles. Broken clouds.16 mph76%30.07 "HgN/A
4:50 pm50 °FSprinkles. Partly sunny.21 mph71%30.07 "HgN/A
4:20 pm52 °FPartly sunny.10 mph62%30.07 "HgN/A
3:50 pm50 °FSprinkles. Broken clouds.9 mph67%30.07 "HgN/A
3:20 pm50 °FBroken clouds.14 mph62%30.09 "HgN/A
2:50 pm50 °FBroken clouds.16 mph62%30.09 "HgN/A
2:20 pm50 °FBroken clouds.15 mph62%30.12 "HgN/A
1:50 pm48 °FBroken clouds.14 mph66%30.12 "HgN/A
1:20 pm48 °FBroken clouds.14 mph62%30.12 "HgN/A
12:50 pm48 °FBroken clouds.14 mph62%30.15 "HgN/A
12:20 pm48 °FSprinkles. Broken clouds.14 mph62%30.15 "HgN/A
11:50 am48 °FBroken clouds.14 mph58%30.15 "HgN/A
11:20 am48 °FPartly sunny.13 mph58%30.15 "HgN/A
10:50 am48 °FPartly sunny.14 mph54%30.15 "HgN/A
10:20 am48 °FPartly sunny.8 mph58%30.18 "HgN/A
9:50 am46 °FPartly sunny.9 mph62%30.18 "HgN/A
9:20 am46 °FPartly sunny.8 mph62%30.18 "HgN/A
8:50 am45 °FPartly sunny.6 mph66%30.18 "HgN/A
8:20 am45 °FPartly sunny.7 mph61%30.18 "HgN/A
Weather by CustomWeather, © 2017

See weather overviewHow to use our weather pages